EW4363 Weather Reports


time (UTC)temp
C
wind
direction
speed
KPH
gust
KPH
rain 1hr
cm
rain 24hr
cm
rain mn
cm
humidity
%
barometer
mb
20190419025303 15 6 1.6 9.7 0.00 0.00 0.00 56 1018.2
20190419024803 15 37 4.8 8.0 0.00 0.00 0.00 56 1018.2
20190419024304 16 2 4.8 9.7 0.00 0.00 0.00 55 1018.3
20190419023803 16 26 4.8 11.3 0.00 0.00 0.00 55 1018.2
20190419023303 15 15 3.2 11.3 0.00 0.00 0.00 55 1018.3
20190419022803 16 8 0.0 14.5 0.00 0.00 0.00 55 1018.2
20190419022303 16 7 3.2 9.7 0.00 0.00 0.00 55 1018.1
20190419021803 16 38 3.2 12.9 0.00 0.00 0.00 55 1018.1
20190419021304 16 30 1.6 19.3 0.00 0.00 0.00 55 1018.2
20190419020803 16 30 6.4 16.1 0.00 0.00 0.00 55 1018.2
20190419020303 16 26 6.4 14.5 0.00 0.00 0.00 55 1018.2
20190419015803 16 20 8.0 19.3 0.00 0.00 0.00 55 1018.2
20190419015304 16 21 8.0 14.5 0.00 0.00 0.00 55 1018.1
20190419014803 16 12 3.2 16.1 0.00 0.00 0.00 56 1018.2
20190419014303 16 27 8.0 20.9 0.00 0.00 0.00 56 1018.2
20190419013804 15 51 6.4 11.3 0.00 0.00 0.00 57 1018.2
20190419013303 15 68 1.6 9.7 0.00 0.00 0.00 57 1018.3
20190419012803 15 74 3.2 11.3 0.00 0.00 0.00 57 1018.0
20190419012303 15 17 6.4 12.9 0.00 0.00 0.00 58 1018.0
20190419011803 15 28 8.0 16.1 0.00 0.00 0.00 58 1018.0
20190419011303 15 33 8.0 16.1 0.00 0.00 0.00 58 1018.0
20190419010803 15 31 6.4 16.1 0.00 0.00 0.00 58 1018.1
20190419010303 15 26 6.4 16.1 0.00 0.00 0.00 58 1018.2
20190419005804 15 26 3.2 11.3 0.00 0.00 0.00 58 1018.1
20190419005303 15 22 8.0 16.1 0.00 0.00 0.00 58 1018.1
20190419004803 15 40 4.8 11.3 0.00 0.00 0.00 59 1018.2
20190419004303 15 27 4.8 11.3 0.00 0.00 0.00 59 1018.3
20190419003803 15 34 6.4 11.3 0.00 0.00 0.00 59 1018.4
20190419003304 15 28 3.2 9.7 0.00 0.00 0.00 59 1018.5
20190419002804 15 5 6.4 16.1 0.00 0.00 0.00 59 1018.5
20190419002303 15 33 9.7 20.9 0.00 0.00 0.00 59 1018.6
20190419001804 15 351 3.2 11.3 0.00 0.00 0.00 59 1018.7
20190419001304 16 16 8.0 19.3 0.00 0.00 0.00 59 1018.8
20190419000803 16 26 3.2 9.7 0.00 0.00 0.00 58 1018.9
20190419000303 16 20 3.2 9.7 0.00 0.00 0.00 58 1018.8
20190418235804 16 39 1.6 9.7 0.00 0.00 0.00 57 1018.8
20190418235304 16 48 1.6 14.5 0.00 0.00 0.00 56 1018.7
20190418234803 16 7 4.8 11.3 0.00 0.00 0.00 56 1018.6
20190418234303 16 35 1.6 14.5 0.00 0.00 0.00 55 1018.5
20190418233803 16 0 3.2 11.3 0.00 0.00 0.00 55 1018.3
20190418233303 16 19 1.6 4.8 0.00 0.00 0.00 55 1018.2
20190418232804 16 62 1.6 8.0 0.00 0.00 0.00 55 1018.2
20190418232303 16 61 1.6 9.7 0.00 0.00 0.00 54 1018.1
20190418231803 16 19 4.8 11.3 0.00 0.00 0.00 54 1018.0
20190418231303 16 10 4.8 9.7 0.00 0.00 0.00 54 1018.0
20190418230803 16 21 4.8 14.5 0.00 0.00 0.00 54 1018.0
20190418230303 16 24 8.0 16.1 0.00 0.00 0.00 54 1018.0
20190418225804 16 30 3.2 12.9 0.00 0.00 0.00 54 1018.0
20190418225303 16 38 6.4 22.5 0.00 0.00 0.00 54 1017.8
20190418224803 16 16 8.0 16.1 0.00 0.00 0.00 54 1017.7
20190418224303 16 9 8.0 16.1 0.00 0.00 0.00 54 1017.9
20190418223805 16 16 8.0 16.1 0.00 0.00 0.00 54 1018.0
20190418223304 16 18 4.8 19.3 0.00 0.00 0.00 54 1017.9
20190418222804 16 34 3.2 11.3 0.00 0.00 0.00 55 1017.9
20190418222304 16 4 3.2 9.7 0.00 0.00 0.00 55 1017.9
20190418221804 16 14 8.0 14.5 0.00 0.00 0.00 55 1017.9
20190418221303 16 47 3.2 11.3 0.00 0.00 0.00 55 1017.9
20190418220833 16 44 3.2 20.9 0.00 0.00 0.00 55 1018.0
20190418220304 16 27 3.2 12.9 0.00 0.00 0.00 55 1018.0
20190418215804 16 29 4.8 12.9 0.00 0.00 0.00 54 1018.0
20190418215304 16 59 3.2 11.3 0.00 0.00 0.00 54 1018.1
20190418214803 16 197 3.2 14.5 0.00 0.00 0.00 54 1018.1
20190418214303 16 37 3.2 12.9 0.00 0.00 0.00 54 1018.1
20190418213803 16 246 1.6 8.0 0.00 0.00 0.00 54 1018.1
20190418213303 16 37 6.4 14.5 0.00 0.00 0.00 53 1017.9
20190418212804 16 44 4.8 19.3 0.00 0.00 0.00 53 1018.0
20190418212303 16 18 8.0 14.5 0.00 0.00 0.00 53 1018.1
20190418211803 16 38 3.2 9.7 0.00 0.00 0.00 52 1018.0
20190418211304 16 38 1.6 14.5 0.00 0.00 0.00 52 1018.0
20190418210803 16 341 4.8 11.3 0.00 0.00 0.00 52 1017.9
20190418210304 16 214 1.6 12.9 0.00 0.00 0.00 52 1017.9
20190418205803 16 25 4.8 16.1 0.00 0.00 0.00 52 1018.0
20190418205303 16 28 4.8 12.9 0.00 0.00 0.00 52 1018.0
20190418204804 16 103 4.8 16.1 0.00 0.00 0.00 52 1018.0
20190418204303 16 256 3.2 14.5 0.00 0.00 0.00 52 1017.8
20190418203803 16 30 4.8 20.9 0.00 0.00 0.00 52 1017.9
20190418203304 16 218 1.6 4.8 0.00 0.00 0.00 52 1017.8
20190418202804 16 88 3.2 9.7 0.00 0.00 0.00 52 1017.7
20190418202303 16 59 1.6 16.1 0.00 0.00 0.00 52 1017.6
20190418201804 16 17 4.8 11.3 0.00 0.00 0.00 52 1017.5
20190418201304 16 5 3.2 12.9 0.00 0.00 0.00 53 1017.4
20190418200803 16 208 4.8 11.3 0.00 0.00 0.00 54 1017.4
20190418200303 16 24 1.6 16.1 0.00 0.00 0.00 54 1017.3
20190418195804 16 194 3.2 4.8 0.00 0.00 0.00 55 1017.2
20190418195303 16 22 1.6 4.8 0.00 0.00 0.00 56 1017.2
20190418194803 16 133 0.0 4.8 0.00 0.00 0.00 57 1017.1
20190418194304 16 86 0.0 3.2 0.00 0.00 0.00 58 1017.2
20190418193803 16 40 3.2 11.3 0.00 0.00 0.00 58 1017.1
20190418193303 16 34 3.2 14.5 0.00 0.00 0.00 58 1016.9
20190418192803 16 230 3.2 4.8 0.00 0.00 0.00 59 1016.9
20190418192304 16 221 1.6 8.0 0.00 0.00 0.00 59 1016.8
20190418191804 16 221 3.2 9.7 0.00 0.00 0.00 60 1016.8
20190418191303 16 45 3.2 9.7 0.00 0.00 0.00 60 1016.7
20190418190804 16 355 4.8 12.9 0.00 0.00 0.00 60 1016.6
20190418190304 16 53 1.6 11.3 0.00 0.00 0.00 61 1016.6
20190418185803 16 357 1.6 11.3 0.00 0.00 0.00 61 1016.7
20190418185303 16 190 3.2 11.3 0.00 0.00 0.00 62 1016.7
20190418184803 16 163 1.6 4.8 0.00 0.00 0.00 62 1016.8
20190418184303 16 168 1.6 8.0 0.00 0.00 0.00 61 1016.6
20190418183804 16 235 3.2 14.5 0.00 0.00 0.00 61 1016.6
20190418183304 16 23 3.2 9.7 0.00 0.00 0.00 61 1016.4
20190418182803 16 182 3.2 8.0 0.00 0.00 0.00 60 1016.4
20190418182303 16 168 1.6 12.9 0.00 0.00 0.00 60 1016.3
20190418181803 16 170 3.2 8.0 0.00 0.00 0.00 59 1016.2
20190418181303 16 346 4.8 19.3 0.00 0.00 0.00 59 1016.1
20190418180804 17 38 4.8 19.3 0.00 0.00 0.00 57 1015.7
20190418180303 17 7 1.6 11.3 0.00 0.00 0.00 57 1015.6
20190418175803 17 180 3.2 16.1 0.00 0.00 0.00 56 1015.5
20190418175303 17 48 3.2 8.0 0.00 0.00 0.00 55 1015.5
20190418174804 17 188 4.8 12.9 0.00 0.00 0.00 54 1015.5
20190418174304 17 325 4.8 19.3 0.00 0.00 0.00 53 1015.5
20190418173803 17 186 4.8 11.3 0.00 0.00 0.00 53 1015.5
20190418173304 17 90 4.8 19.3 0.00 0.00 0.00 52 1015.5
20190418172804 18 42 3.2 8.0 0.00 0.00 0.00 52 1015.3
20190418172305 18 176 1.6 9.7 0.00 0.00 0.00 51 1015.3
20190418171804 18 245 1.6 12.9 0.00 0.00 0.00 51 1015.4
20190418171304 18 125 4.8 11.3 0.00 0.00 0.00 51 1015.5
20190418170803 18 216 0.0 4.8 0.00 0.00 0.00 51 1015.5
20190418170303 18 27 3.2 12.9 0.00 0.00 0.00 51 1015.6
20190418165803 18 10 3.2 16.1 0.00 0.00 0.00 51 1015.5
20190418165304 18 64 3.2 9.7 0.00 0.00 0.00 52 1015.4
20190418164804 18 169 6.4 12.9 0.00 0.00 0.00 52 1015.3
20190418164304 18 160 4.8 19.3 0.00 0.00 0.00 52 1015.3
20190418163804 18 277 4.8 14.5 0.00 0.00 0.00 52 1015.3
20190418163304 18 66 4.8 16.1 0.00 0.00 0.00 53 1015.2
20190418162803 18 177 1.6 12.9 0.00 0.00 0.00 53 1015.0
20190418162304 18 294 6.4 22.5 0.00 0.00 0.00 53 1014.8
20190418161805 18 61 4.8 14.5 0.00 0.00 0.00 54 1014.8
20190418161304 18 33 3.2 14.5 0.00 0.00 0.00 54 1015.0
20190418160803 18 55 4.8 27.4 0.00 0.00 0.00 54 1015.3
20190418160303 18 25 8.0 19.3 0.00 0.00 0.00 53 1015.4
20190418155803 18 23 4.8 16.1 0.00 0.00 0.00 52 1015.6
20190418155303 18 233 4.8 19.3 0.00 0.00 0.00 52 1015.5
20190418154804 18 158 4.8 20.9 0.00 0.00 0.00 52 1015.3
20190418154304 18 70 4.8 12.9 0.00 0.00 0.00 53 1015.2
20190418153803 18 24 4.8 19.3 0.00 0.00 0.00 52 1015.3
20190418153303 18 16 4.8 12.9 0.00 0.00 0.00 53 1015.4
20190418152804 18 142 8.0 22.5 0.00 0.00 0.00 52 1015.6
20190418152304 19 29 3.2 9.7 0.00 0.00 0.00 52 1015.7
20190418151803 19 186 3.2 19.3 0.00 0.00 0.00 52 1015.9
20190418151304 20 133 3.2 4.8 0.00 0.00 0.00 52 1015.8
20190418150803 20 190 1.6 12.9 0.00 0.00 0.00 52 1015.6
20190418150303 20 201 1.6 4.8 0.00 0.00 0.00 51 1015.8
20190418145804 20 34 1.6 8.0 0.00 0.00 0.00 51 1016.1
20190418145303 19 137 1.6 8.0 0.00 0.00 0.00 51 1016.2
20190418144804 19 217 3.2 14.5 0.00 0.00 0.00 51 1016.1
20190418144303 19 3 6.4 20.9 0.00 0.00 0.00 51 1016.1
20190418143803 20 149 3.2 16.1 0.00 0.00 0.00 51 1016.3
20190418143303 20 223 4.8 11.3 0.00 0.00 0.00 51 1016.2
20190418142803 20 309 3.2 11.3 0.00 0.00 0.00 50 1016.5
20190418142303 20 163 9.7 16.1 0.00 0.00 0.00 49 1016.4
20190418141805 20 206 4.8 11.3 0.00 0.00 0.00 50 1016.5
20190418141303 20 178 9.7 19.3 0.00 0.00 0.00 49 1016.5
20190418140803 20 189 3.2 14.5 0.00 0.00 0.00 50 1016.5
20190418140303 20 62 3.2 9.7 0.00 0.00 0.00 51 1015.9
20190418135803 20 33 3.2 14.5 0.00 0.00 0.00 50 1015.7
20190418135303 20 24 4.8 19.3 0.00 0.00 0.00 49 1015.5
20190418134803 20 166 6.4 16.1 0.00 0.00 0.00 50 1015.3
20190418134303 20 231 9.7 20.9 0.00 0.00 0.00 50 1015.2
20190418133803 20 36 11.3 20.9 0.00 0.00 0.00 50 1015.1
20190418133303 20 40 9.7 25.7 0.00 0.00 0.00 50 1015.1
20190418132804 20 71 8.0 16.1 0.00 0.00 0.00 49 1015.2
20190418132304 20 18 8.0 19.3 0.00 0.00 0.00 49 1015.2
20190418131804 20 19 4.8 19.3 0.00 0.00 0.00 48 1015.1
20190418131304 20 316 4.8 19.3 0.00 0.00 0.00 49 1015.0
20190418130803 19 311 4.8 20.9 0.00 0.00 0.00 49 1015.1
20190418130303 19 177 3.2 16.1 0.00 0.00 0.00 50 1015.2
20190418125803 19 19 8.0 25.7 0.00 0.00 0.00 49 1015.3
20190418125304 19 32 4.8 12.9 0.00 0.00 0.00 50 1015.6
20190418124803 19 5 6.4 19.3 0.00 0.00 0.00 49 1015.8
20190418124303 19 224 6.4 19.3 0.00 0.00 0.00 49 1015.9
20190418123803 19 154 9.7 22.5 0.00 0.00 0.00 48 1016.0
20190418123304 20 178 9.7 22.5 0.00 0.00 0.00 48 1016.2
20190418122804 20 184 8.0 16.1 0.00 0.00 0.00 48 1016.3
20190418122303 19 20 3.2 9.7 0.00 0.00 0.00 49 1016.4
20190418121803 19 203 1.6 19.3 0.00 0.00 0.00 50 1016.5
20190418121303 18 189 8.0 16.1 0.00 0.00 0.00 49 1016.5
20190418120804 18 236 4.8 9.7 0.00 0.00 0.00 50 1016.5
20190418120304 18 162 3.2 12.9 0.00 0.00 0.00 50 1016.6
20190418115803 18 6 3.2 19.3 0.00 0.00 0.00 50 1016.7
20190418115303 18 354 3.2 9.7 0.00 0.00 0.00 50 1016.7
20190418114804 18 41 3.2 14.5 0.00 0.00 0.00 50 1016.7
20190418114304 18 4 4.8 9.7 0.00 0.00 0.00 49 1016.8
20190418113804 18 1 3.2 14.5 0.00 0.00 0.00 50 1016.6
20190418113303 18 144 3.2 14.5 0.00 0.00 0.00 50 1016.4
20190418112804 18 28 6.4 19.3 0.00 0.00 0.00 49 1016.4
20190418112305 18 205 1.6 19.3 0.00 0.00 0.00 49 1016.3
20190418111803 18 16 4.8 16.1 0.00 0.00 0.00 49 1016.4
20190418111303 18 30 3.2 11.3 0.00 0.00 0.00 49 1016.6
20190418110803 17 75 3.2 9.7 0.00 0.00 0.00 49 1016.8
20190418110304 17 52 3.2 9.7 0.00 0.00 0.00 49 1016.8
20190418105803 17 68 3.2 11.3 0.00 0.00 0.00 50 1016.9
20190418105306 17 194 1.6 4.8 0.00 0.00 0.00 51 1016.8
20190418104803 17 42 1.6 4.8 0.00 0.00 0.00 52 1016.9
20190418104303 17 16 1.6 4.8 0.00 0.00 0.00 52 1017.0
20190418103803 16 22 1.6 4.8 0.00 0.00 0.00 52 1017.1
20190418103304 16 7 1.6 4.8 0.00 0.00 0.00 52 1017.2
20190418102803 16 1 1.6 4.8 0.00 0.00 0.00 53 1017.4
20190418102305 16 229 0.0 4.8 0.00 0.00 0.00 53 1017.3
20190418101804 16 259 1.6 4.8 0.00 0.00 0.00 53 1017.4
20190418101304 16 30 1.6 11.3 0.00 0.00 0.00 53 1017.4
20190418100803 16 352 1.6 4.8 0.00 0.00 0.00 54 1017.4
20190418100303 16 313 0.0 8.0 0.00 0.00 0.00 55 1017.4
20190418095803 16 341 1.6 4.8 0.00 0.00 0.00 56 1017.5
20190418095305 16 26 1.6 9.7 0.00 0.00 0.00 57 1017.6
20190418094803 16 17 4.8 14.5 0.00 0.00 0.00 57 1017.6
20190418094304 15 0 1.6 4.8 0.00 0.00 0.00 58 1017.7
20190418093803 15 344 3.2 11.3 0.00 0.00 0.00 58 1017.7
20190418093304 15 37 3.2 8.0 0.00 0.00 0.00 60 1017.7
20190418092803 15 139 1.6 4.8 0.00 0.00 0.00 62 1017.8
20190418092307 15 42 3.2 8.0 0.00 0.00 0.00 63 1017.5
20190418091304 15 72 4.8 16.1 0.00 0.00 0.00 62 1017.8
20190418090803 15 328 1.6 16.1 0.00 0.00 0.00 62 1018.1
20190418090303 15 7 4.8 16.1 0.00 0.00 0.00 62 1017.9
20190418085803 15 44 3.2 9.7 0.00 0.00 0.00 63 1018.3
20190418085305 16 38 1.6 4.8 0.00 0.00 0.00 62 1018.3
20190418084804 16 19 3.2 8.0 0.00 0.00 0.00 62 1018.4
20190418084304 15 312 3.2 12.9 0.00 0.00 0.00 63 1018.1
20190418083804 15 334 3.2 11.3 0.00 0.00 0.00 64 1017.9
20190418083304 15 24 3.2 14.5 0.00 0.00 0.00 65 1017.4
20190418082803 15 34 6.4 22.5 0.00 0.00 0.00 66 1017.3
20190418082305 15 0 4.8 19.3 0.00 0.00 0.00 67 1017.4
20190418081803 15 305 0.0 3.2 0.00 0.00 0.00 69 1017.6
20190418081303 14 356 3.2 12.9 0.00 0.00 0.00 70 1017.6
20190418080803 14 19 3.2 8.0 0.00 0.00 0.00 71 1017.8
20190418080304 14 342 0.0 1.6 0.00 0.00 0.00 71 1018.1
20190418075803 14 339 0.0 3.2 0.00 0.00 0.00 72 1018.2
20190418075305 13 308 0.0 3.2 0.00 0.00 0.00 73 1018.1
20190418074804 13 314 0.0 0.0 0.00 0.00 0.00 74 1018.1
20190418074304 13 314 0.0 3.2 0.00 0.00 0.00 74 1018.0
20190418073803 13 356 0.0 1.6 0.00 0.00 0.00 74 1018.0
20190418073303 13 357 0.0 0.0 0.00 0.00 0.00 74 1018.0
20190418072804 13 351 0.0 3.2 0.00 0.00 0.00 75 1017.8
20190418072303 13 355 0.0 0.0 0.00 0.00 0.00 75 1017.9
20190418071803 13 355 0.0 1.6 0.00 0.00 0.00 76 1018.0
20190418071303 12 355 0.0 0.0 0.00 0.00 0.00 76 1018.0
20190418070803 12 355 0.0 0.0 0.00 0.00 0.00 76 1018.0
20190418070304 12 355 0.0 0.0 0.00 0.00 0.00 77 1017.8
20190418065803 12 355 0.0 0.0 0.00 0.00 0.00 79 1017.7
20190418065303 12 355 0.0 0.0 0.00 0.00 0.00 79 1017.7
20190418064803 12 355 0.0 0.0 0.00 0.00 0.00 79 1017.6
20190418064304 12 355 1.6 1.6 0.00 0.00 0.00 79 1017.5
20190418063803 12 227 0.0 1.6 0.00 0.00 0.00 80 1017.5
20190418063303 12 195 0.0 1.6 0.00 0.00 0.00 80 1017.4
20190418062803 12 194 0.0 1.6 0.00 0.00 0.00 80 1017.2
20190418062304 11 194 0.0 1.6 0.00 0.00 0.00 80 1017.1
20190418061804 11 206 0.0 3.2 0.00 0.00 0.00 81 1017.0
20190418061303 11 238 0.0 1.6 0.00 0.00 0.00 82 1017.0
20190418060804 11 238 0.0 0.0 0.00 0.00 0.00 82 1016.9
20190418060304 11 238 0.0 0.0 0.00 0.00 0.00 82 1016.9
20190418055804 11 238 0.0 3.2 0.00 0.00 0.00 82 1016.9
20190418055304 11 306 0.0 1.6 0.00 0.00 0.00 82 1016.9
20190418054804 11 5 0.0 1.6 0.00 0.00 0.00 82 1016.9
20190418054303 11 340 0.0 1.6 0.00 0.00 0.00 83 1016.8
20190418053803 11 35 0.0 1.6 0.00 0.00 0.00 84 1016.6
20190418053304 11 32 0.0 1.6 0.00 0.00 0.00 84 1016.7
20190418052803 11 32 0.0 1.6 0.00 0.00 0.00 84 1016.6
20190418052303 11 32 0.0 4.8 0.00 0.00 0.00 84 1016.5
20190418051803 11 309 0.0 0.0 0.00 0.00 0.00 85 1016.4
20190418051303 11 309 0.0 0.0 0.00 0.00 0.00 84 1016.3
20190418050804 11 309 0.0 3.2 0.00 0.00 0.00 84 1016.2
20190418050303 11 317 1.6 3.2 0.00 0.00 0.00 83 1016.2
20190418045803 11 281 1.6 3.2 0.00 0.00 0.00 83 1016.2
20190418045304 11 247 0.0 3.2 0.00 0.00 0.00 83 1016.3
20190418044803 11 342 0.0 3.2 0.00 0.00 0.00 83 1016.3
20190418044303 12 346 1.6 3.2 0.00 0.00 0.00 82 1016.2
20190418043803 12 352 1.6 3.2 0.00 0.00 0.00 83 1016.3
20190418043303 12 113 0.0 1.6 0.00 0.00 0.00 83 1016.3
20190418042804 12 115 0.0 3.2 0.00 0.00 0.00 83 1016.3
20190418042304 12 115 0.0 3.2 0.00 0.00 0.00 83 1016.5
20190418041804 12 30 1.6 3.2 0.00 0.00 0.00 83 1016.5
20190418041303 12 47 0.0 3.2 0.00 0.00 0.00 83 1016.7
20190418040803 12 33 3.2 8.0 0.00 0.00 0.00 83 1016.9
20190418040304 12 335 0.0 1.6 0.00 0.00 0.00 83 1017.0
20190418035804 12 51 1.6 3.2 0.00 0.00 0.00 83 1016.9
20190418035304 12 340 0.0 1.6 0.00 0.00 0.00 83 1017.0
20190418034804 12 335 0.0 3.2 0.00 0.00 0.00 83 1017.0
20190418034304 12 62 1.6 4.8 0.00 0.00 0.00 83 1017.1
20190418033803 12 354 1.6 4.8 0.00 0.00 0.00 83 1017.1
20190418033304 12 17 3.2 12.9 0.00 0.00 0.00 83 1017.1
20190418032803 12 23 3.2 8.0 0.00 0.00 0.00 83 1017.1
20190418032304 12 27 4.8 9.7 0.00 0.00 0.00 83 1017.2
20190418031803 12 29 3.2 4.8 0.00 0.00 0.00 83 1017.3
20190418031303 13 33 3.2 4.8 0.00 0.00 0.00 82 1017.5
20190418030803 13 27 3.2 4.8 0.00 0.00 0.00 82 1017.5
20190418030303 13 32 1.6 3.2 0.00 0.00 0.00 82 1017.6
20190418025803 13 33 0.0 1.6 0.00 0.00 0.00 83 1017.7